Weather in Charlotte Amalie

The United States Virgin Islands     18°20′38″N   64°56′09″W
temp.,
°C
wind,
m/s
gust,
m/s
humid.,
%
clouds,
%
prec.,
mm/h
press.,
hPa
HPBL,
m
12 april, mon
mon1223:00+25e666568 0.0 10141220
02:00+25ene656495 0.0 10131275
05:00+25e5461100 0.0 10131320
08:00+25se446239 0.0 10151214
11:00+25se446545 0.0 10151064
14:00+25e336777 0.0 1013720
17:00+25ese446980 0.0 1012769
20:00+25se5672100 0.0 1014760
13 april, tue
tue1323:00+25se5576100 0.0 1014775
02:00+25se3478100 0.0 1012536
05:00+25se2281100 0.2 1012471
08:00+25se1179100 0.3 1014359
11:00+25ese1177100 0.0 1015329
14:00+26e117667 0.0 1013347
17:00+26e22754 0.0 1012495
20:00+26ene227799 0.0 1013408
14 april, wed
wed1423:00+26ene227886 0.0 1014396
02:00+26ne2180100 0.0 1013337
05:00+25nne2181100 0.0 1013384
08:00+25n338272 0.1 1015429
11:00+25nnw4476100 0.1 1016509
14:00+26nnw5571100 0.1 1014632
17:00+26n56735 0.0 1013677
20:00+25n667915 0.0 1014767
15 april, thu
thu1523:00+25nne6579100 0.1 1015678
02:00+25nne547722 0.1 1013672
05:00+25nne557515 0.0 1013719
08:00+25nne667248 0.0 1016892
11:00+25ne65707 0.0 1016824
14:00+25ne54705 0.0 1014635
17:00+25ene54710 0.0 1013685
20:00+25ene557412 0.0 1015748
16 april, fri
fri1623:00+25e667871 0.0 1015768
02:00+25ene668156 0.1 1013677
05:00+25e558219 0.2 1013629
08:00+26e45820 0.3 1015524
11:00+26ese44813 1.3 1016416
14:00+26e447852 1.7 1014513
17:00+26e447932 0.1 1014570
20:00+26ese45818 1.6 1015579